Location: Błonie
(52.1971°N, 20.6200°E)
Time: 21:49:41
(UTC+01:00)

ISS - Pass Details

Date: 28 January 2019
Orbit: 403 x 411 km, 51.6° (Epoch: 18 February)

Event Time Altitude Azimuth Distance (km) Brightness Sun altitude
Rises 17:31:59 0° 237° (WSW) 2,328 1.6 -11.5°
Reaches altitude 10° 17:34:07 10° 231° (SW) 1,471 0.1 -11.8°
Maximum altitude 17:37:16 44° 158° (SSE) 579 -3.1 -12.3°
Enters shadow 17:39:08 21° 95° (E) 983 -2.5 -12.5°
